Location: Unspecified
(41.4057°N, 2.1753°E)
Time: 07:18:09
(UTC+01:00)

ISS - Visible Passes

Search period start: 29 January 2015 00:00
Search period end: 08 February 2015 00:00
Orbit: 402 x 410 km, 51.6° (Epoch: 28 January)

Date Brightness Start Highest point End Pass type
(mag) Time Alt. Az. Time Alt. Az. Time Alt. Az.
04 Feb -2.2 19:56:27 10° SSW 19:58:40 34° S 19:58:40 34° S visible
05 Feb -1.9 19:05:03 10° S 19:07:43 24° SE 19:09:16 17° E visible
05 Feb -0.4 20:40:58 10° WSW 20:41:58 18° W 20:41:58 18° W visible
06 Feb -3.3 19:48:46 10° WSW 19:52:01 73° NW 19:52:27 61° NNE visible
07 Feb -3.2 18:56:49 10° SW 19:00:02 59° SE 19:02:49 13° ENE visible
07 Feb -0.7 20:34:00 10° WNW 20:35:31 19° NW 20:35:31 19° NW visible
